DECAYED
Showing default

KEPLER-20, 56217 (Decayed)

Orbit data source: Space-Track

KEPLER-20, 56217 was a payload satellite owned by Kepler Comms (CA) in LEO that was launched on Sat, 15 Apr 2023 UTC via an FALCON 9 launch vehicle from the Air Force Western Test Range (AFWTR). Payload-class satellites include a variety of spacecraft equipped with specific instruments for various scientific and technological missions. These include communications satellites like Starlink; space stations such as the ISS; scientific satellites like the Hubble; Earth observation satellites from companies like Planet Labs, Umbra, and HawkEye 360; GPS; miniature CubeSats for education and research; and military/defense satellites.

Not visible in the next 10 days
Identifier
56217, 2023-054AR
Orbit
Decayed
Country
Flag of CACA
Related business
Manufacturer
KEPLER/UTIAS
Mission
Decayed Commercial Communications
Bus & Motor
CUBESAT 6U, Unknown motor
Mass
15 kg wet, 15 kg dry
Launch date (UTC)
2023-04-15 (3 years ago)
Launch vehicle
FALCON 9
Launch site
Air Force Western Test Range (AFWTR)
Object type
Payload
Rocket body
Debris
Shape & HBR
Box + 2 Pan, 0.3 m
Radar Cross Section
0.109 m², Medium (>0.1 m² and < 1m²)

Expand to show TLE details & history
Last TLE update: 8 months ago

TLE from 8 months ago
0 KEPLER-20
1 56217U 23054AR  25262.17134645  .12408490  25259-5  10244-2 0  9992
2 56217  97.2845 172.5790 0010458 233.2227 126.8113 16.39684164137098
Epoch: 2025-09-19T04:06Z
TLE epoch observation values (Epoch: 2025-09-19T04:06:44.333Z)
Latitude
-0.00005°
Longitude
112.57187°
Altitude
174.004 km
Speed
7.799 km/s
True Right ascension
11h 30m 18s
True Declination
0° 00' 00"
Sunlit
Object was in daylight at epoch
Visualization orbit readout
Latitude
Unknown
Longitude
Unknown
Altitude
Unknown
Speed
Unknown
Apparent Right ascension
Unknown
Apparent Declination
Unknown
Sunlit
N/A
Visualization observer readout
Local Sidereal Time
02:15:32
Azimuth
Unknown
Elevation
Unknown
Doppler factor
Unknown
Orbital elements
Apogee altitude
170.287 km
Perigee altitude
156.604 km
Semi-major axis
6,541.583 km
Eccentricity
0.00105
Inclination
97.2845°
RAAN
172.579°
Arg. of periapsis
233.2227°
True anomaly
126.90717°
Mean anomaly
126.8113°
Eccentric anomaly
126.85924°
Mean motion
4.10222 °/min
Orbital period
87.76 mins
BSTAR
0.0010244
Loading maneuver chart data...
Computing Atmospheric mass density...
Loading historical data...
Loading historical data...
Loading historical data...
Loading historical data...
Loading historical data...
Loading historical data...
Loading historical data...

Documentation

Showing up to 5 results
|